{"data":{"norad_id":69693,"intl_designator":"2026-145S","name":"STARLINK-37962","alt_names":[],"object_type":"PAYLOAD","status":"ACTIVE","operator":null,"country":"US","launch_date":"2026-06-25","launch_site_code":"AFWTR","launch_vehicle":null,"mission":null,"orbit_class":"UNKNOWN","rcs_meters":null,"size_class":null,"mass_kg":null,"dimensions":null,"purposes":["comms"],"wikipedia_slug":null,"has_3d_model":false,"image_url":null,"decayed_at":null,"tle_current":{"epoch":"2026-09-19T19:50:41.164512Z","epoch_age_seconds":79793,"freshness":"FRESH","line1":"1 69693U 26145S   26262.82686533  .00011360  00000+0  35367-3 0  9997","line2":"2 69693  97.2852 109.5589 0001825  91.8938 268.2514 15.33444743 13447","mean_motion":15.33444743,"eccentricity":0.0001825,"inclination_deg":97.2852,"raan_deg":109.5589,"arg_perigee_deg":91.8938,"mean_anomaly_deg":268.2514,"bstar":0.00035367,"rev_number":1344,"period_min":93.906220395188,"perigee_km":464.29496735803,"apogee_km":466.79291090081,"semimajor_km":6843.6809391294,"source":"CELESTRAK","updated_at":"2026-09-20T09:00:44.255334Z"}}}